Weather in Desyatnikovo

Russia / Republic of Buryatia     51°25′05″N   107°27′00″E
temp.,
°C
wind,
m/s
gust,
m/s
humid.,
%
clouds,
%
prec.,
mm/h
press.,
hPa
HPBL,
m
19 april, mon
mon1923:00−3ne2237100 0.0 102218
02:00−3ene223723 0.0 102113
05:00−5e11409 0.0 102110
08:000ese12285 0.0 1020281
11:00+7ssw34225 0.0 1016914
14:00+11ssw46235 0.0 10111373
17:00+14ssw68230 0.0 10071684
20:00+9sse35357 0.0 100654
20 april, tue
tue2023:00+7sse3537100 0.0 100362
02:00+8wsw2434100 0.0 100265
05:00+3nw22526 0.0 100726
08:00+1n4961100 0.0 1012627
11:00+5n55425 0.0 1011902
14:00+9n543188 0.0 10091233
17:00+7n77345 0.0 10081050
20:00+2n61047100 0.0 1011732
21 april, wed
wed2123:000nnw345869 0.4 1012138
02:00−3n2480100 0.4 101398
05:00−4n2592100 0.0 1014148
08:00−2n5970100 0.0 1016754
11:00+1n6856100 0.0 10171123
14:00+1n785799 0.0 10171230
17:00−1n7962100 0.1 10191030
20:00−2n51054100 0.1 10221055
22 april, thu
thu2223:00−2n4949100 0.5 1023954
02:00−4nnw2475100 0.5 1027176
05:00−6n228993 0.0 102815
08:00−3nnw375978 0.0 1029636
11:00+1n5632100 0.0 10281168
14:00+2n7635100 0.0 10271397
17:00−2n6766100 0.4 1031733
20:00−4nnw4884100 1.2 1035557
23 april, fri
fri2323:00−4n3768100 0.3 1037576
02:00−4n3768100 0.5 1039546
05:00−5nne3767100 0.1 1040486
08:00−3n4556100 0.1 1042518
11:00+1nne4652100 0.0 1041924
14:00+4nne444697 0.0 10401556
17:00+5nne4544100 0.0 10391457
20:00+1nnw3563100 0.0 1041123